GFSGBSN_925_rhum_132.txt.gz
RH
100 100 100 100 100 100 98 91 89 88 93 90 99 95 88 78 79 72 56 45 23 14 9 7 9 10 11 32 33 15 13 10 12 13 14 15 15 16 19 16 15 12 11 14 14 13 12
94 96 96 94 99 98 100 100 93 94 96 90 96 98 96 84 86 82 73 65 43 23 14 9 11 12 32 29 15 15 14 11 13 13 14 15 17 16 16 17 17 16 18 17 15 14 13
83 93 98 95 98 97 99 100 99 98 100 98 94 100 98 90 90 89 82 78 70 42 22 14 16 18 44 28 15 16 14 14 14 13 15 14 15 18 20 22 18 18 18 18 16 14 13
87 83 82 86 95 100 100 100 100 100 100 100 99 100 99 96 95 94 88 83 79 68 27 17 25 30 36 22 23 15 14 13 13 14 14 14 15 16 19 19 22 22 21 24 18 15 14
94 90 87 81 85 92 96 100 100 100 99 100 100 100 100 99 98 94 85 80 73 72 36 36 45 50 51 22 15 14 13 12 12 13 14 15 15 19 20 26 32 27 30 27 21 13 11
86 88 94 89 80 87 91 93 97 98 100 98 100 100 98 100 99 92 84 76 68 56 48 55 54 49 35 21 14 11 12 12 14 17 20 19 26 28 32 32 32 26 28 22 19 14 17
86 88 89 91 92 87 84 86 80 84 91 91 99 100 99 99 95 92 78 43 44 55 50 41 38 32 26 21 12 12 12 12 16 20 28 25 34 40 32 31 27 28 26 22 21 19 20
83 87 87 88 94 94 92 84 79 74 74 79 95 99 98 98 98 92 67 43 36 34 49 33 35 36 33 25 30 15 13 17 21 28 25 32 41 29 26 27 31 29 23 26 25 21 22
82 86 86 82 85 88 88 92 80 71 66 69 78 100 100 99 96 89 61 51 37 28 46 45 34 37 35 34 41 37 15 20 23 25 28 36 34 24 25 29 31 26 24 24 26 28 29
77 81 83 80 79 84 77 79 85 70 62 73 100 97 99 100 91 77 60 50 44 31 76 59 54 38 31 24 25 15 14 18 25 26 27 31 25 27 28 29 26 33 22 24 33 41 49
77 75 75 78 78 78 71 69 85 73 60 62 98 98 100 96 78 56 42 46 40 52 53 27 24 15 17 28 20 21 19 19 26 27 27 35 31 31 34 30 23 26 26 31 33 40 46
67 76 70 84 76 77 75 70 89 77 67 62 98 100 100 78 62 49 38 34 53 84 89 46 23 23 21 19 20 19 24 23 24 30 33 37 30 32 32 26 25 25 31 38 41 47 75
80 77 76 75 74 76 73 71 88 78 76 82 99 100 100 85 69 49 33 59 90 94 45 44 33 27 27 28 24 23 30 36 38 42 49 35 33 26 24 32 28 28 46 75 77 84 74
85 84 77 79 78 77 73 75 72 72 81 80 88 98 99 88 70 43 53 90 93 65 57 38 47 41 35 31 32 30 30 43 39 35 46 50 60 32 31 27 32 36 44 70 75 80 78
74 74 78 80 78 77 76 70 76 66 83 76 99 100 94 89 61 50 88 99 80 61 42 49 50 61 68 37 32 34 36 36 29 36 52 53 52 36 26 29 27 35 45 35 59 62 88
66 68 71 76 81 81 79 70 76 73 84 77 95 92 93 82 60 68 95 81 77 53 42 49 66 56 71 49 39 35 33 28 34 34 36 53 68 38 36 31 30 30 30 55 80 77 91
78 62 62 73 77 78 75 70 63 77 84 89 78 97 93 76 78 94 96 87 61 45 43 49 64 66 59 60 49 44 39 36 43 43 44 53 70 52 39 40 43 41 45 57 64 80 90
84 81 70 76 80 76 72 78 71 83 85 76 84 98 97 89 99 100 93 79 52 49 43 49 52 60 62 54 53 65 50 42 39 43 57 47 70 81 53 38 38 39 49 52 86 75 88
88 85 80 76 72 66 74 79 68 81 93 79 99 100 99 99 93 95 85 73 59 52 51 50 52 55 59 70 66 64 62 43 38 39 59 52 79 89 54 53 70 78 64 54 66 75 84
87 78 75 84 74 64 61 75 75 71 87 70 99 98 100 99 92 78 77 78 73 54 57 50 55 54 66 66 63 66 67 50 40 48 56 55 75 80 81 85 85 88 79 89 85 94 89
83 75 80 88 81 80 67 62 66 75 85 77 96 95 81 98 93 85 80 68 74 77 56 59 61 63 68 77 70 72 64 57 46 54 42 56 87 79 73 68 67 69 70 76 92 81 90
84 81 74 74 76 83 74 60 58 67 83 96 100 97 87 87 72 87 79 78 78 75 66 63 68 60 66 70 63 67 64 68 67 60 58 57 79 92 68 65 74 78 70 72 77 74 82
79 81 81 65 79 84 74 56 73 70 81 96 87 82 83 82 83 76 75 76 72 68 64 57 58 62 64 62 54 47 47 51 55 58 68 64 78 98 80 58 71 92 83 86 78 72 69
76 78 82 78 72 82 82 65 69 66 79 97 78 76 94 95 85 80 72 71 72 69 76 63 60 63 57 49 46 42 41 42 47 54 56 69 72 85 90 68 90 63 68 71 70 63 72
78 79 78 82 85 88 91 76 64 59 61 94 87 69 88 87 75 71 73 74 70 66 70 68 58 59 62 54 81 89 85 64 64 56 58 53 77 96 88 83 74 72 69 71 76 71 69
82 84 85 83 90 98 98 96 67 53 65 88 97 93 77 82 75 56 67 65 82 89 78 73 58 61 64 80 85 94 90 75 62 51 44 49 57 86 97 86 85 78 73 64 59 92 67
84 85 86 86 91 99 99 99 83 53 69 93 87 98 90 96 68 60 66 69 60 71 80 83 73 66 68 98 97 94 87 50 57 55 60 63 77 79 84 85 76 75 74 70 86 80 71
84 84 83 82 86 90 88 83 77 68 59 88 88 85 95 98 75 59 56 73 75 71 83 80 89 87 97 98 98 90 73 58 52 46 52 61 71 75 84 92 80 86 75 80 82 87 82
84 83 85 82 82 84 84 81 80 83 71 84 84 86 88 92 85 57 56 56 54 55 79 82 78 86 91 90 87 66 70 71 49 64 69 75 68 87 84 84 93 96 95 83 75 87 95

GFSGBSN_925_rhum_138.txt.gz
RH
99 95 99 98 99 98 97 98 95 91 87 88 89 90 95 92 87 85 79 77 77 76 71 62 53 45 31 36 23 15 14 12 13 13 15 17 20 20 22 20 19 15 17 19 18 19 18
100 100 100 100 98 99 98 97 99 99 97 94 93 93 97 98 93 92 86 84 83 83 81 75 61 50 30 50 25 15 14 13 14 15 15 16 18 18 20 21 20 20 21 22 19 18 17
100 97 92 90 88 87 89 90 89 91 99 100 99 97 99 98 98 97 94 91 87 84 83 78 48 38 34 46 18 16 16 14 14 14 16 15 16 19 20 21 21 21 25 23 13 18 16
96 94 94 91 84 84 81 78 85 88 85 98 100 100 100 96 100 98 97 94 91 85 82 80 49 38 45 31 22 23 19 16 14 13 14 15 16 18 20 21 22 25 24 26 12 17 14
96 90 87 88 79 81 76 71 64 76 97 99 99 100 100 100 100 97 100 94 88 86 80 63 46 44 47 28 22 15 18 15 13 14 16 17 17 24 24 26 22 29 28 27 27 17 14
91 94 87 88 87 79 75 77 66 65 94 99 99 100 100 99 100 100 98 91 79 68 53 54 56 50 36 25 17 15 13 14 14 17 20 23 32 32 34 30 34 27 32 30 31 23 21
91 91 92 88 86 80 66 64 66 73 76 97 99 96 100 98 100 99 95 61 52 65 61 51 45 39 30 23 21 17 13 15 17 19 25 29 32 36 31 30 26 30 36 39 33 28 23
83 94 89 87 90 93 88 72 74 81 84 83 93 100 99 100 100 100 88 52 40 39 67 48 46 45 38 36 42 23 12 16 19 23 27 32 36 28 28 32 36 38 42 45 36 28 26
80 88 98 85 81 90 92 91 80 73 75 77 75 100 99 100 100 99 81 60 39 34 61 53 45 44 42 40 51 47 17 19 22 26 31 33 28 25 28 33 37 40 44 43 38 28 34
82 92 94 86 78 79 87 90 90 85 74 69 72 88 100 100 98 88 79 68 46 39 66 44 53 44 39 42 37 26 21 18 23 26 28 30 26 29 32 35 33 43 33 35 33 40 52
81 82 86 82 79 76 74 82 82 90 74 65 69 89 100 100 78 77 55 52 46 44 42 21 52 22 29 36 26 24 19 18 27 28 27 31 28 29 32 30 31 37 27 33 35 44 47
77 78 76 76 76 77 76 72 66 84 74 62 76 99 100 98 77 61 50 47 51 69 64 37 24 23 27 21 22 23 24 23 24 28 32 32 28 31 35 32 33 30 33 39 59 56 73
74 72 76 76 74 74 73 76 66 84 73 60 91 98 100 94 71 48 44 61 87 81 39 43 30 25 28 27 25 25 28 30 32 35 39 38 35 31 31 32 32 33 45 69 71 87 67
79 71 63 74 72 71 70 73 68 84 75 70 100 100 100 81 66 44 58 78 96 51 63 45 47 32 33 29 28 30 34 37 33 34 47 49 48 36 30 30 34 35 44 64 74 87 69
81 77 72 71 70 72 74 69 72 80 74 99 100 100 98 86 59 56 82 94 80 63 52 48 51 54 50 44 36 33 35 40 33 38 46 57 54 37 32 32 31 34 49 40 64 64 90
74 74 76 76 78 75 72 72 70 86 78 94 96 91 92 89 62 60 90 78 71 61 52 49 52 59 70 50 42 35 36 33 34 38 36 41 68 42 41 34 30 35 37 62 90 95 94
76 68 66 72 82 82 77 76 70 72 86 84 80 92 83 82 66 90 92 76 69 53 45 54 59 64 60 65 50 50 42 37 43 45 44 50 68 52 46 42 46 51 55 69 74 82 96
77 72 73 81 83 81 81 78 70 67 81 84 84 94 98 74 96 99 91 74 58 53 45 44 51 59 64 64 59 70 55 40 40 40 44 48 70 81 57 44 59 53 60 79 95 93 93
75 74 76 75 68 72 79 81 71 74 84 80 98 100 99 91 92 94 86 75 64 56 52 51 54 53 64 73 68 68 56 46 48 44 50 51 68 84 58 56 56 73 78 88 92 96 92
76 80 80 74 71 71 72 82 75 77 84 71 96 99 100 100 86 84 85 80 78 61 61 52 54 52 64 68 66 66 62 56 43 46 53 57 71 68 80 71 78 85 69 64 76 97 87
81 82 83 78 70 65 77 78 77 69 80 69 90 91 84 98 96 84 76 78 82 70 64 61 59 59 63 74 70 73 69 59 50 46 61 66 89 85 81 79 80 78 77 72 72 71 89
96 89 87 81 79 75 78 79 73 72 80 86 98 92 86 87 74 80 78 85 80 70 63 64 72 64 65 64 55 65 64 64 64 57 55 63 82 91 90 69 74 75 71 68 62 65 73
84 82 91 70 77 81 80 78 75 73 88 96 93 82 80 83 85 89 79 79 78 70 65 60 60 64 65 67 63 60 60 61 61 61 70 69 77 93 78 62 74 77 73 69 68 71 69
79 76 73 70 74 80 77 76 73 73 79 94 96 77 84 91 86 74 71 66 73 74 63 67 65 74 62 56 54 57 60 68 69 70 63 76 78 80 87 80 93 60 60 67 74 72 73
77 82 78 74 73 73 80 82 80 74 71 85 90 92 89 92 80 77 75 73 70 70 75 72 66 63 61 61 80 82 82 70 67 62 64 67 77 90 95 85 66 58 52 80 82 74 72
82 71 64 55 62 66 72 83 93 88 85 83 79 90 94 88 86 65 77 74 86 89 84 79 66 58 63 84 100 93 90 79 70 56 57 67 69 81 96 95 91 66 67 64 68 84 72
86 86 84 75 59 68 61 55 67 74 77 93 87 86 98 100 80 70 85 82 75 82 85 79 75 83 70 98 98 92 94 64 76 64 58 79 91 94 89 92 82 63 68 66 88 71 73
83 81 84 86 80 76 75 74 67 66 78 97 91 83 94 100 94 63 62 77 82 85 89 76 86 89 93 95 98 96 99 78 71 58 60 69 89 96 90 94 88 75 72 80 76 82 78
86 87 82 83 82 79 78 81 64 66 69 96 97 91 97 99 99 90 91 82 60 58 80 85 77 87 90 90 96 91 99 92 71 86 54 76 74 82 78 79 84 84 93 85 76 77 82

GFSGBSN_925_rhum_141.txt.gz
RH
94 91 88 96 99 98 96 96 93 97 96 91 88 87 87 90 90 87 83 83 82 80 80 78 70 63 45 42 32 16 14 12 14 14 15 17 18 19 19 19 17 14 15 16 15 16 16
99 98 99 98 97 99 99 96 92 98 100 100 98 93 90 92 94 91 84 88 86 83 83 79 73 62 37 55 32 17 15 14 14 14 15 17 18 18 20 20 18 19 19 17 18 15 16
100 99 99 100 100 98 97 92 91 91 91 94 99 99 95 96 99 91 92 89 90 87 85 81 76 54 38 48 28 16 17 15 14 14 16 16 17 19 20 20 20 21 21 17 15 16 15
99 100 100 100 98 92 88 85 88 81 84 82 87 96 99 100 100 94 94 91 91 89 84 82 72 47 50 37 24 22 22 17 14 14 15 16 16 19 21 20 19 21 21 18 15 15 14
100 94 99 98 96 92 87 84 81 74 77 80 84 95 99 95 100 100 98 94 88 85 82 70 52 44 48 33 26 16 20 16 14 16 18 17 19 25 22 22 19 25 20 26 22 18 16
91 96 98 95 91 87 84 75 69 64 77 77 91 99 99 100 100 100 99 94 83 70 58 57 56 52 39 29 18 15 15 15 14 18 20 24 27 27 28 24 28 26 28 28 28 22 22
90 92 93 90 90 86 81 71 65 67 74 75 89 98 98 100 99 100 96 79 53 62 58 54 48 43 33 26 25 17 14 15 17 18 24 29 29 31 29 28 25 28 33 34 30 25 29
79 80 84 93 92 89 86 81 76 75 71 82 86 100 93 100 100 99 92 59 42 40 62 50 48 46 39 38 43 33 13 17 19 24 27 28 35 27 26 29 31 34 36 36 32 28 29
82 75 82 93 87 85 87 92 90 86 76 72 80 85 98 96 99 99 86 63 41 39 59 53 48 47 43 41 47 44 17 19 21 25 28 31 28 24 26 30 35 35 38 37 34 29 29
76 76 78 95 91 84 77 82 85 87 83 74 75 82 98 98 95 92 84 75 49 44 58 43 47 40 41 42 40 35 21 19 23 27 29 29 25 29 32 31 28 35 29 32 34 35 37
70 69 81 93 92 83 75 74 85 84 85 74 67 79 100 96 78 85 68 63 46 43 33 28 52 33 39 41 26 24 20 21 28 28 28 30 29 29 29 28 29 30 29 33 34 37 44
72 70 75 80 84 81 75 72 74 73 81 74 65 90 100 98 77 62 50 51 49 61 56 36 28 26 32 22 23 25 25 24 25 28 32 31 28 29 29 31 31 30 32 38 50 45 50
62 72 69 75 76 76 72 73 72 66 84 73 63 90 99 99 80 51 49 60 82 70 37 41 31 27 31 29 27 26 29 32 31 36 38 34 33 30 32 32 32 32 39 47 51 60 48
74 69 71 76 73 73 72 71 76 71 82 74 86 100 100 86 70 50 54 76 90 54 57 47 42 31 36 30 30 31 34 34 34 32 41 40 38 36 31 30 33 36 37 44 70 60 50
79 73 72 74 62 75 71 70 74 72 79 86 100 100 98 86 58 48 81 91 71 63 53 51 49 52 47 42 36 34 34 36 32 35 41 49 46 34 32 32 30 35 44 37 51 49 71
82 76 77 72 73 69 62 74 68 78 81 94 99 94 100 83 62 62 87 76 67 57 52 52 58 58 62 50 41 36 36 34 37 38 36 42 55 42 40 34 31 31 32 49 63 82 71
83 77 82 76 70 74 68 71 68 86 80 92 89 96 94 79 68 91 91 78 62 53 48 53 57 65 61 63 50 48 38 37 42 46 41 46 60 46 43 40 40 39 48 58 58 61 77
83 84 79 81 76 72 74 71 71 81 81 85 83 94 97 90 99 98 98 68 56 54 46 46 52 60 64 62 55 68 53 44 42 41 44 49 62 59 45 38 54 57 55 61 71 79 88
82 78 86 77 75 78 75 76 69 71 81 76 96 98 98 90 94 99 90 75 60 57 52 50 52 53 64 71 59 67 56 48 47 44 49 51 57 58 39 59 50 60 67 73 82 85 85
87 85 82 81 74 78 78 79 75 72 80 64 95 98 100 98 82 74 80 85 78 61 59 52 55 57 65 67 65 66 63 56 46 46 53 52 63 59 61 55 54 62 57 58 64 87 73
91 89 83 79 79 81 76 77 78 78 80 63 91 92 86 97 97 83 71 73 78 71 64 60 58 58 66 74 70 74 68 60 52 45 58 63 75 72 67 64 64 65 70 63 63 65 76
92 97 88 78 81 72 72 78 77 80 82 74 95 87 81 80 81 78 78 79 75 67 66 63 68 63 59 59 53 63 60 61 61 57 60 63 78 80 84 62 61 68 75 69 63 64 64
86 90 92 89 84 75 70 75 80 74 86 95 90 78 74 80 82 80 77 79 74 68 64 57 60 63 67 63 58 55 55 56 55 58 64 65 72 78 69 57 61 68 72 71 54 55 53
93 95 99 97 93 82 77 72 81 78 80 92 96 73 78 89 84 80 69 65 72 69 61 66 67 66 62 54 56 58 63 65 68 68 61 72 74 72 71 73 76 56 45 52 59 53 55
96 90 98 95 88 95 88 84 82 82 89 87 94 91 82 90 75 74 72 72 69 66 71 68 62 60 61 59 66 81 75 71 65 62 69 64 67 84 91 68 56 51 43 55 74 58 47
89 88 89 95 95 97 94 92 87 82 92 93 93 95 96 88 81 66 72 72 80 81 78 73 64 58 64 74 73 79 76 70 68 53 61 68 65 84 93 83 72 49 54 61 62 61 66
100 93 93 96 93 90 82 84 83 86 84 94 89 95 98 100 82 69 78 76 72 76 74 74 78 82 72 89 85 80 61 66 68 59 63 78 81 87 81 82 59 52 61 61 76 64 70
100 98 90 81 77 67 67 72 81 86 88 99 93 85 90 100 97 80 67 77 80 77 78 77 85 91 88 88 78 79 89 74 67 55 53 51 69 81 75 83 78 66 68 75 72 70 72
93 92 76 74 71 71 70 59 59 65 70 98 99 90 86 95 99 98 90 84 73 62 76 86 73 83 82 77 85 79 86 84 66 78 52 68 52 64 63 60 67 73 72 72 73 70 71

GFSGBSN_925_rhum_144.txt.gz
RH
96 93 90 91 91 91 88 93 94 93 93 97 97 94 90 85 85 83 80 72 73 77 80 78 73 66 46 37 30 17 14 13 14 13 13 13 14 14 14 13 12 11 10 10 9 9 9
95 100 97 96 92 95 94 96 98 100 96 98 99 98 99 95 90 90 84 77 72 79 82 82 78 70 45 47 29 22 15 14 13 11 13 13 14 12 15 14 13 13 12 10 10 10 11
100 96 100 99 100 99 100 100 99 98 98 95 98 100 99 100 96 93 89 86 77 76 83 80 79 65 47 42 28 21 17 15 14 13 12 14 14 15 16 15 15 14 15 10 12 11 11
99 100 100 99 100 100 100 99 89 90 87 83 83 92 99 100 99 98 94 86 86 86 82 78 73 56 51 40 30 25 23 17 14 14 14 16 16 15 17 16 14 14 14 12 13 12 12
86 89 97 98 94 97 97 98 93 89 85 76 70 78 86 100 99 100 98 90 90 92 83 68 58 47 44 35 28 18 20 16 13 15 17 17 16 19 18 18 17 16 14 16 14 14 13
84 82 88 91 88 93 92 92 86 81 82 69 66 72 96 99 100 100 98 89 86 77 62 60 53 51 38 28 17 14 17 14 14 14 16 18 19 20 18 17 18 18 18 17 18 15 16
80 82 90 94 93 93 91 84 78 80 79 72 57 70 98 99 99 99 99 85 55 48 50 47 43 39 32 28 25 17 15 16 15 16 23 21 24 21 23 22 21 22 23 21 18 16 22
79 81 83 88 94 94 91 87 83 77 72 68 77 76 100 100 99 98 97 65 45 42 56 41 39 38 37 35 36 25 17 22 20 22 22 24 22 21 20 21 23 23 24 23 20 20 23
81 78 72 73 78 94 92 86 85 85 83 76 72 82 98 100 100 100 83 66 45 43 55 41 38 38 35 36 36 31 26 21 24 24 25 27 24 21 21 23 26 22 24 23 23 21 19
81 81 77 71 75 93 90 85 78 83 85 80 74 80 100 100 95 94 85 77 62 48 47 26 29 30 36 32 37 31 28 22 22 25 25 24 20 22 24 23 21 25 20 22 24 24 24
80 77 76 71 73 90 91 83 75 75 86 85 73 78 96 90 78 72 69 72 60 49 37 19 35 31 32 34 20 22 21 22 27 25 24 24 23 24 25 22 22 24 23 25 26 27 30
79 77 68 66 70 90 89 80 72 75 82 84 74 76 100 100 83 73 68 61 49 59 42 32 30 33 40 23 20 22 24 21 20 24 24 23 20 21 22 23 24 24 26 28 32 29 34
82 79 74 65 62 78 86 79 73 70 71 80 72 77 100 100 74 61 56 52 73 63 26 27 32 25 35 25 24 22 26 25 25 27 27 23 23 22 25 26 25 22 28 32 32 43 33
80 84 78 69 68 66 79 79 74 71 68 81 70 88 99 97 74 53 63 67 82 32 28 38 28 26 36 29 28 27 26 26 25 24 24 22 33 26 25 24 26 28 27 33 46 41 34
72 82 83 74 72 69 70 76 72 70 75 80 78 100 100 96 66 56 71 87 54 34 31 43 32 32 38 30 29 27 26 25 25 25 28 30 30 25 26 24 23 25 29 30 42 35 44
84 75 84 81 73 75 72 73 71 66 76 80 98 100 99 91 69 70 88 73 55 43 44 45 42 41 41 36 34 31 30 28 31 28 27 32 43 29 27 28 24 25 23 34 39 65 44
82 86 76 84 77 74 73 70 69 70 75 77 95 97 100 78 78 86 96 57 51 44 41 45 49 52 46 50 36 34 28 32 32 34 30 31 48 30 30 29 25 27 26 33 37 36 52
93 81 82 88 79 76 71 70 69 70 82 82 94 94 100 81 97 94 82 55 49 43 40 42 46 48 49 50 42 64 30 30 34 31 33 35 39 34 28 21 31 33 32 40 57 49 58
89 87 81 92 82 79 70 71 69 71 88 87 90 88 98 95 99 97 95 64 50 47 43 43 46 47 51 62 68 39 36 44 37 25 26 40 34 34 24 34 41 40 44 44 46 61 67
76 97 85 85 92 87 76 72 70 70 90 70 86 97 98 99 78 85 96 83 64 49 47 44 46 49 48 47 43 52 43 47 42 30 50 35 31 37 32 32 34 43 38 36 40 80 62
92 94 89 84 97 90 82 77 72 70 84 62 70 76 58 93 98 80 79 78 70 66 50 46 48 44 46 55 46 46 41 45 42 42 39 36 45 43 39 36 38 40 42 40 38 40 54
81 85 98 93 87 89 91 82 72 74 76 74 96 64 66 50 56 68 65 60 59 56 56 54 54 43 44 40 38 44 42 42 35 38 42 47 60 73 79 44 42 48 64 49 46 44 45
90 99 93 89 95 84 87 82 77 80 81 91 76 64 46 58 58 66 62 52 54 51 54 42 51 47 50 40 43 39 35 35 32 40 48 48 47 58 48 31 40 52 65 68 43 32 36
99 98 98 84 100 83 86 89 82 80 87 92 77 52 56 74 56 55 48 48 53 53 52 49 52 49 47 42 44 46 43 43 43 40 37 42 46 44 48 42 65 41 29 28 32 33 32
99 100 95 91 100 86 82 82 83 83 84 94 87 74 43 67 55 60 57 55 51 51 51 50 52 44 43 43 44 40 47 52 46 41 39 39 44 57 63 47 38 33 29 32 37 41 34
98 97 96 85 94 98 86 78 78 88 92 90 89 86 72 55 57 53 58 54 59 56 63 56 53 48 46 40 42 45 34 34 42 53 48 43 52 65 59 76 58 30 27 40 41 55 48
98 95 98 96 86 94 91 76 76 89 100 92 99 88 97 95 59 52 57 61 52 54 45 53 65 62 49 52 57 44 41 36 45 39 62 67 66 79 67 64 45 28 41 45 70 61 54
96 100 100 100 100 100 95 94 94 98 100 96 100 97 94 100 88 60 54 61 59 49 51 71 72 74 65 64 49 45 47 40 40 33 36 44 48 63 54 62 66 42 56 56 54 57 55
99 100 94 81 95 96 95 94 99 97 94 89 98 95 71 87 98 94 83 78 59 42 43 66 59 58 54 53 45 43 56 54 45 53 33 49 34 39 42 38 40 46 42 40 52 48 49